Dewpoint
-2 -3 -4 -4 -3 -5 -2 4 8 9 9 9 11 12 12 13 12 12 12 11 9 9 8 7 8 7 10 11 11 11 11 11
-1 -2 -3 -3 -2 -5 -3 2 6 8 8 9 11 12 13 13 13 12 11 11 11 8 9 8 7 8 9 10 10 10 11 11
1 -1 -2 -2 -2 -4 -4 -1 5 7 9 9 11 13 13 13 12 12 11 11 11 10 10 8 8 8 9 9 10 10 10 10
2 1 -1 -1 -1 -2 -4 -0 4 7 9 9 10 12 12 13 13 12 11 11 11 11 9 8 8 7 6 7 9 10 10 10
4 2 1 -1 -1 -0 -2 1 4 7 9 9 9 10 12 12 13 12 11 11 11 11 9 8 8 7 8 7 8 10 10 10
7 8 4 1 1 2 0 2 4 6 9 10 10 10 11 12 12 12 12 11 10 10 9 9 9 9 9 8 8 10 10 11
6 8 6 2 4 4 3 2 4 5 9 10 11 10 10 11 12 13 12 12 10 10 9 9 9 9 8 7 9 10 10 10
7 4 6 4 3 6 4 2 6 8 4 11 11 11 11 12 12 12 12 12 11 10 10 10 10 9 9 7 8 10 9 10
9 7 8 7 4 7 8 5 5 4 6 8 10 11 11 12 12 12 11 11 12 11 11 11 11 10 9 8 9 10 10 10
8 7 7 8 6 3 8 7 7 3 4 4 6 9 11 11 11 11 11 11 11 11 10 10 10 9 9 8 8 10 9 9
4 7 7 7 8 4 5 9 9 5 6 6 5 9 10 11 11 11 10 10 10 10 10 10 9 9 9 8 9 10 8 8
0 6 7 7 9 6 5 13 13 8 7 7 7 8 10 11 11 11 10 10 10 10 11 10 9 9 9 8 9 9 8 7
-0 5 7 9 10 8 6 8 13 11 10 10 10 8 8 9 9 10 10 11 12 11 10 10 10 9 10 10 10 9 8 7
-2 0 7 8 8 8 7 8 12 13 12 11 11 9 9 8 7 8 10 10 11 11 10 11 10 9 10 10 10 9 7 7
8 5 8 8 7 9 10 10 12 13 13 12 11 9 10 10 8 9 9 9 9 10 10 11 10 9 10 9 8 8 7 8
5 11 10 9 9 9 7 8 8 10 11 11 10 11 10 10 10 10 9 9 9 10 11 11 10 9 10 8 7 7 7 7
5 6 10 8 9 9 7 6 9 8 12 11 12 11 12 11 11 10 10 10 9 9 10 11 10 9 10 9 8 7 6 6
5 5 5 9 7 6 9 8 9 11 11 11 12 12 11 11 11 10 10 10 10 10 10 11 10 10 10 9 8 7 7 5
5 5 5 8 11 6 7 8 11 11 11 12 11 11 11 10 9 9 10 10 10 10 10 10 10 10 10 9 8 7 6 5
3 4 5 8 13 10 8 11 12 11 12 11 11 10 10 10 7 9 9 9 9 10 10 10 10 10 10 9 9 8 7 8
Wind_Speed
15 13 10 6 2 4 7 10 12 13 13 13 13 14 14 15 16 16 13 14 13 12 10 12 18 16 19 20 13 15 15 15
17 15 12 8 4 5 8 11 12 13 13 13 13 13 15 16 17 16 13 14 13 10 8 6 18 21 23 21 13 14 12 14
19 17 14 10 7 7 8 11 13 14 14 13 13 14 15 16 17 15 14 15 16 13 6 10 16 19 21 21 15 15 15 14
21 19 16 14 10 7 8 11 13 14 15 15 15 15 15 17 16 16 16 16 15 14 13 14 14 20 21 19 20 16 17 16
23 20 18 17 13 9 9 11 14 15 16 16 17 16 17 19 20 20 21 20 17 17 18 16 17 25 23 27 23 19 19 16
23 21 21 19 16 13 9 11 14 16 17 17 18 18 19 20 22 23 24 24 21 20 18 16 15 19 22 29 22 19 20 19
23 22 23 23 21 17 13 11 12 14 19 18 18 19 20 21 22 25 25 24 23 22 20 18 17 20 22 27 24 21 21 20
25 26 23 25 24 21 17 14 13 15 17 18 18 18 21 21 22 23 22 22 23 23 20 20 21 22 24 28 28 24 22 19
35 29 25 25 27 25 22 18 19 17 17 18 21 22 22 22 22 25 25 22 20 21 22 22 19 21 25 28 27 23 24 23
38 35 29 26 26 28 26 23 20 19 18 18 21 24 25 23 22 23 23 23 22 23 21 24 19 23 27 28 29 24 23 22
35 36 35 30 27 28 29 25 22 21 19 17 17 24 27 27 26 25 22 25 26 26 25 25 25 27 29 29 31 23 25 20
34 37 36 34 29 29 29 26 24 23 22 21 17 20 27 30 32 32 28 30 27 26 25 23 25 29 32 30 33 26 23 20
33 36 38 37 32 33 32 33 29 25 27 23 21 19 20 25 28 32 33 33 32 29 28 26 29 30 32 31 31 26 22 19
31 34 37 37 32 30 29 32 32 28 30 28 26 25 22 21 23 28 29 30 30 32 30 31 34 35 36 32 23 26 29 24
23 31 35 34 31 28 28 32 29 29 33 36 33 28 24 25 24 24 26 26 29 30 36 39 39 41 40 33 25 20 32 25
9 28 33 34 34 33 31 34 34 38 37 34 31 28 29 26 25 25 25 27 29 30 35 39 44 44 42 38 30 32 35 23
2 6 17 32 32 32 31 32 30 31 31 30 27 27 28 30 29 28 27 28 28 30 36 38 50 45 49 40 29 23 36 29
10 11 11 7 36 36 35 34 30 28 29 27 30 30 32 33 30 28 27 27 29 30 34 46 42 45 46 46 32 30 36 27
21 21 18 12 31 38 37 35 32 30 29 27 32 33 32 30 28 27 26 25 27 25 43 33 38 38 46 46 37 30 24 23
27 33 29 14 24 38 36 34 31 30 28 28 29 29 29 27 25 22 20 20 20 25 38 35 34 42 46 46 38 35 24 23
Wind_Direction
182 178 182 186 186 185 181 186 193 192 196 197 197 201 195 193 202 205 200 178 193 211 177 162 189 191 168 170 171 164 165 166
189 189 193 197 196 192 188 189 195 199 200 196 193 190 190 196 204 200 192 182 185 183 173 197 203 187 173 175 180 181 186 180
199 194 195 201 200 193 197 195 194 199 202 197 188 189 194 194 200 200 194 184 183 180 191 183 186 190 181 174 179 185 187 179
212 201 198 203 204 195 203 196 196 199 202 200 192 193 201 200 199 201 199 194 187 186 181 186 213 199 196 201 186 191 197 193
216 211 204 213 210 208 208 198 199 199 202 202 199 196 205 202 196 198 199 195 194 195 198 205 207 206 221 200 190 196 207 198
223 212 208 212 210 215 215 202 202 203 204 204 203 200 206 202 203 205 209 207 205 206 215 217 218 219 212 199 190 196 203 199
233 222 214 207 215 213 218 214 204 199 198 203 206 207 208 208 206 206 215 218 220 225 225 223 223 207 196 198 191 201 210 199
231 228 221 207 215 215 217 220 219 212 201 203 204 211 212 213 212 212 216 220 224 227 232 234 230 219 218 200 195 209 210 211
225 228 224 216 212 218 215 220 223 224 215 209 206 207 211 216 214 209 209 217 222 230 237 237 231 214 207 199 196 204 208 209
223 224 224 222 218 219 218 219 224 223 218 220 214 210 214 218 217 218 221 225 230 229 233 237 222 207 195 195 195 203 209 191
219 219 221 219 217 219 223 221 225 228 221 223 213 214 216 219 225 222 221 230 236 232 229 225 222 206 201 198 190 193 185 184
223 219 221 217 211 212 223 223 224 227 226 228 223 213 217 223 225 227 229 235 235 229 229 225 220 211 201 200 194 186 187 192
217 215 220 215 205 205 216 226 224 214 221 229 232 228 226 223 226 227 227 230 234 233 231 227 211 205 198 198 194 184 199 202
223 221 216 216 215 217 223 222 226 219 213 222 227 234 230 224 232 229 227 228 228 227 231 219 211 200 197 187 176 191 195 198
219 209 208 215 221 219 216 219 221 222 225 215 223 232 237 237 233 233 232 227 227 224 227 221 207 200 203 183 164 178 182 178
72 219 215 213 218 218 229 239 233 232 233 227 223 224 228 231 234 237 232 227 227 226 223 224 210 198 198 181 179 182 177 190
304 85 223 230 230 233 234 243 245 239 237 235 225 226 226 231 239 240 233 227 230 233 230 226 217 208 198 181 186 191 190 196
261 266 241 282 231 236 235 241 244 233 233 232 222 226 227 234 240 238 233 239 239 235 235 220 208 206 201 192 187 186 193 194
267 267 259 308 229 233 235 236 235 238 236 229 226 222 226 232 237 231 235 240 239 239 224 220 206 206 206 189 191 194 196 207
285 264 262 266 223 236 230 228 223 227 231 233 230 228 235 239 231 225 231 244 233 231 221 223 219 218 208 195 195 196 199 214
Height
1483 1484 1486 1488 1489 1490 1492 1494 1496 1499 1502 1506 1509 1512 1516 1519 1521 1524 1527 1529 1532 1534 1538 1539 1541 1544 1546 1549 1551 1551 1553 1554
1481 1483 1485 1486 1488 1489 1490 1492 1494 1497 1500 1504 1507 1511 1514 1517 1520 1523 1525 1528 1530 1533 1535 1538 1540 1541 1544 1548 1550 1552 1552 1554
1478 1480 1482 1484 1486 1487 1489 1490 1493 1495 1499 1502 1505 1509 1512 1515 1518 1522 1524 1527 1528 1531 1534 1536 1539 1542 1544 1546 1549 1551 1551 1553
1475 1477 1479 1481 1484 1485 1487 1488 1491 1493 1496 1499 1503 1506 1510 1513 1517 1520 1523 1525 1527 1530 1532 1535 1537 1540 1542 1545 1547 1550 1551 1552
1472 1474 1476 1478 1481 1483 1484 1486 1489 1491 1494 1496 1500 1503 1507 1512 1515 1518 1521 1524 1525 1528 1530 1533 1536 1538 1539 1541 1544 1548 1549 1551
1469 1471 1473 1475 1477 1480 1482 1484 1486 1489 1491 1493 1496 1500 1504 1508 1512 1516 1518 1521 1524 1526 1528 1530 1532 1534 1536 1540 1542 1545 1548 1549
1464 1467 1469 1472 1473 1476 1478 1481 1483 1486 1489 1491 1493 1497 1501 1504 1508 1513 1516 1519 1521 1523 1525 1527 1529 1531 1534 1537 1540 1543 1545 1547
1460 1462 1465 1468 1469 1472 1475 1477 1480 1483 1485 1488 1491 1493 1498 1501 1504 1509 1512 1515 1518 1519 1521 1523 1525 1528 1530 1534 1537 1541 1543 1545
1454 1458 1460 1463 1466 1468 1472 1474 1477 1479 1482 1484 1488 1490 1494 1498 1501 1504 1508 1512 1514 1517 1518 1520 1521 1524 1526 1531 1536 1538 1541 1543
1450 1453 1456 1458 1461 1464 1468 1471 1474 1477 1479 1481 1484 1487 1490 1494 1498 1500 1505 1509 1511 1512 1514 1516 1518 1521 1524 1528 1532 1535 1537 1540
1443 1447 1450 1453 1456 1460 1463 1467 1471 1473 1475 1477 1480 1483 1487 1490 1494 1497 1501 1503 1507 1509 1511 1513 1515 1518 1522 1526 1529 1532 1535 1538
1436 1440 1444 1448 1451 1454 1458 1462 1466 1469 1471 1473 1476 1479 1482 1485 1489 1493 1496 1498 1501 1504 1505 1508 1512 1515 1518 1523 1526 1530 1533 1536
1430 1434 1439 1442 1446 1447 1452 1454 1460 1466 1467 1469 1472 1475 1478 1481 1483 1486 1490 1491 1495 1498 1501 1504 1507 1512 1517 1520 1523 1528 1532 1534
1423 1426 1431 1436 1440 1443 1446 1450 1455 1460 1464 1465 1467 1469 1472 1475 1477 1479 1482 1485 1488 1492 1495 1498 1502 1506 1510 1512 1518 1528 1531 1533
1419 1420 1425 1430 1435 1438 1442 1446 1452 1455 1456 1460 1462 1464 1466 1469 1471 1474 1476 1478 1480 1485 1488 1491 1494 1500 1505 1506 1514 1518 1524 1530
1418 1421 1424 1425 1428 1430 1433 1436 1440 1444 1449 1453 1457 1460 1461 1463 1466 1469 1470 1472 1474 1478 1481 1484 1486 1491 1500 1503 1508 1511 1516 1526
1413 1418 1426 1424 1425 1426 1429 1432 1435 1439 1444 1449 1452 1455 1456 1458 1460 1462 1465 1466 1468 1472 1474 1476 1477 1487 1491 1497 1504 1509 1514 1518
1411 1411 1413 1417 1421 1419 1423 1427 1430 1433 1437 1443 1446 1449 1451 1453 1456 1457 1459 1460 1462 1465 1468 1466 1474 1481 1487 1493 1498 1502 1509 1513
1407 1407 1409 1409 1414 1415 1417 1421 1424 1427 1431 1436 1438 1442 1444 1447 1450 1452 1453 1454 1455 1458 1458 1465 1467 1475 1481 1487 1494 1499 1506 1511
1401 1400 1401 1404 1406 1410 1412 1416 1420 1422 1426 1430 1433 1437 1439 1443 1445 1448 1449 1449 1450 1453 1456 1460 1465 1471 1477 1483 1489 1495 1502 1507